Regional Weather Roundup
Issued by NWS Sterling, VA

Home | Current Version | Previous Version | Graphics & Text | Print | Product List | Glossary On
Versions: 1 2 3 4 5 6 7 8 9 10 11 12 13 14 15 16 17 18 19 20 21 22 23 24 25 26 27 28 29 30 31 32 33 34 35 36 37 38 39 40 41 42 43 44 45 46 47 48 49 50
000
ASUS41 KLWX 050010
RWRLWX

REGIONAL WEATHER ROUNDUP
NATIONAL WEATHER SERVICE BALTIMORE MD/WASHINGTON DC
800 PM EDT TUE AUG 04 2015

Note: "FAIR" indicates few or no clouds below 12,000 feet
with no significant weather and/or obstructions to visibility.
 TC=TEMPERATURE CELSIUS

 * =Non NWS site. Station does not report precipitation (e.g. rain,
    snow, etc.), thunder, or fog.

DCZ001-MDZ009-015-VAZ040>042-051-053>054-050100-
WASHINGTON METRO

CITY           SKY/WX    TMP DP  RH WIND       PRES   REMARKS
WASHINGTON NAT MOCLDY    85  68  56 NE7       29.89S
DULLES         LGT RAIN  75  67  76 NE9       29.90R
ANDREWS AFB    MOCLDY    81  68  65 N12       29.89R
FT BELVOIR     PTCLDY    77  67  71 CALM      29.89R
QUANTICO       MOCLDY    86  70  58 NE7       29.88R HX  90
COLLEGE PARK*  MOCLDY    77  73  88 CALM      29.89R
LEESBURG*      MOCLDY    77  77 100 S13       29.93R
GAITHERSBURG*  MOCLDY    73  70  88 CALM      29.95S

$$

MDZ006>007-011-014-050100-
BALTIMORE METRO

CITY           SKY/WX    TMP DP  RH WIND       PRES   REMARKS
BWI AIRPORT    MOCLDY    75  71  87 NW6       29.89S
MD SCIENCE CTR   N/A     76  68  76 MISG      29.91R
MARTIN STATE   PTCLDY    81  75  83 W20G25    29.93R
ANNAPOLIS      MOCLDY    83  69  62 NW8       29.88R
FORT MEADE*    MOCLDY    77  68  73 N3        29.92R

$$

MDZ012-015-019>023-050100-
MARYLAND EASTERN SHORE

CITY           SKY/WX    TMP DP  RH WIND       PRES   REMARKS
OCEAN CITY     CLOUDY    81  74  79 SW10      29.90R
SALISBURY      MOCLDY    82  74  76 SW9       29.90S
BAY BRIDGE AP*   N/A     86  66  51 S3        29.87F
CAMBRIDGE*     MOCLDY    81  66  61 CALM      29.88F
EASTON*        PTCLDY    91  70  49 S8        29.92R HX  97

$$

MDZ017>025-050100-
SOUTHERN MARYLAND

CITY           SKY/WX    TMP DP  RH WIND       PRES   REMARKS
PATUXENT RIVER MOCLDY    80  68  66 S6        29.89S
ST INIGOES     NOT AVBL
LEONARDTOWN*   MOCLDY    81  64  57 CALM      29.90S

$$

MDZ003>005-050100-
NORTH CENTRAL MARYLAND

CITY           SKY/WX    TMP DP  RH WIND       PRES   REMARKS
FREDERICK*     MOCLDY    81  70  69 SW12      29.90F
HAGERSTOWN APT CLEAR     84  54  35 NW6       29.92R
WESTMINSTER*   MOCLDY    82  63  51 CALM      29.93R

$$

MDZ501>502-050100-
WESTERN MARYLAND

CITY           SKY/WX    TMP DP  RH WIND       PRES   REMARKS
OAKLAND*       PTCLDY    70  64  83 W3        30.05R
CUMBERLAND*    PTCLDY    82  54  36 NW5       29.96R

$$

VAZ025>031-050100-
SHENANDOAH VALLEY

CITY           SKY/WX    TMP DP  RH WIND       PRES   REMARKS
WINCHESTER*    PTCLDY    81  66  61 S5        29.92R
FRONT ROYAL*   MOCLDY    73  68  83 CALM      29.91R
LURAY*         FAIR      79  66  65 NE7       29.91R
NEW MARKET*    FAIR      75  66  73 CALM      29.90R
STAUNTON*      MOCLDY    85  65  51 SW8       29.95R
WAYNESBORO*    FAIR      81  66  60 W6        29.95S

$$

WVZ021-048>050-054>055-050100-
EASTERN WEST VIRGINIA PANHANDLE

CITY           SKY/WX    TMP DP  RH WIND       PRES   REMARKS
MARTINSBURG    PTCLDY    85  57  38 N3        29.91R
PETERSBURG*    PTCLDY    80  61  52 W5        29.95R

$$

VAZ036>039-050-050100-
CENTRAL FOOTHILLS

CITY           SKY/WX    TMP DP  RH WIND       PRES   REMARKS
CHARLOTTESVILL PTCLDY    83  66  56 SW6       29.90R
CULPEPER*      MOCLDY    77  70  78 N9        29.90R
ORANGE*        PTCLDY    84  68  58 CALM      29.90R
GORDONSVILLE*  FAIR      81  68  65 CALM      29.89R
WARRENTON*     FAIR      78  70  74 NE9       29.89R

$$

VAZ055>057-050100-
NORTH AND CENTRAL PIEDMONT

CITY           SKY/WX    TMP DP  RH WIND       PRES   REMARKS
FREDERICKSBRG* PTCLDY    87  76  69 S5        29.87R HX  97
STAFFORD*      PTCLDY    82  72  71 CALM      29.92R

$$

NCZ024-NYZ072-PAZ021-071-VAZ022-071-050100-
OTHER REGIONAL OBSERVATIONS

CITY           SKY/WX    TMP DP  RH WIND       PRES   REMARKS
NEW YORK CITY  PTCLDY    85  51  31 VRB3      29.90R
PHILADELPHIA   PTCLDY    88  58  36 W8        29.89R
PITTSBURGH     MOCLDY    77  54  44 W7        29.96R
ROANOKE        MOCLDY    85  64  49 W8        29.99R
RICHMOND       MOCLDY    85  72  65 S5        29.89R HX  91
RALEIGH        PTCLDY    87  71  58 SE6       29.92S HX  93

$$

ANZ530>537-050100-
MARINE OBSERVATIONS

STATION/POSITION TIME  TEMP    WIND        PRES
                       AIR SEA DIR/SP/G
                 (UTC) (F)     (DEG/KT/KT) (MB)
THOMAS PT LIGHT  NOT AVBL
BALT KEY BRIDGE  2300   81     130/  3/  4 1011.3R
COVE POINT       2300   79     200/ 15/ 18 1012.6R
LEWISETTA        2300   81 84   70/  6/  7 1011.7R
SOLOMONS ISLAND  2300      84                N/A
PINEY POINT      2300          250/  2/  3   N/A

$$




USA.gov is the U.S. government's official web portal to all federal, state and local government web resources and services.